Regional Weather Roundup
Issued by NWS

Home | Current Version | Previous Version | Text Only | Print | Product List | Glossary Off
Versions: 1 2 3 4 5 6 7 8 9 10 11 12 13 14 15 16 17 18 19 20 21 22 23 24 25 26 27 28 29 30 31 32 33 34 35 36 37 38 39 40 41 42 43 44 45 46 47 48 49 50

372
ASUS44 KLIX 171005
RWRLA
LOUISIANA WEATHER ROUNDUP
NATIONAL WEATHER SERVICE NEW ORLEANS LA
500 AM CDT WED SEP 17 2014

NOTE: "FAIR" INDICATES FEW OR NO CLOUDS BELOW 12,000 FEET WITH NO
      SIGNIFICANT WEATHER AND/OR OBSTRUCTIONS TO VISIBILITY.
      SKY/WX - SKY CONDITION AND SIGNIFICANT WEATHER.
      TMP - AIR TEMPERATURE.    DP   - DEWPOINT TEMPERATURE.
      RH  - RELATIVE HUMIDITY.  PRES - PRESSURE.
      HX  - HEAT INDEX.         WCI  - WIND CHILL INDEX.

*  THESE STATIONS ARE NOT NWS OR FAA STATIONS AND ARE NOT UNDER
   NWS QUALITY CONTROL.

LAZ040-048-061>063-065-066-069-171100-
SOUTHEAST LOUISIANA

CITY           SKY/WX    TMP DP  RH WIND       PRES   REMARKS
N.O. AUDUBON     N/A     75  75  99 MISG        N/A
N.O. INTL ARPT CLOUDY    75  71  87 CALM      29.96F
N.O. LAKEFRONT CLOUDY    79  69  71 N6        29.96S
N.O. DOWNTOWN* FAIR      79  70  73 CALM      29.96F
SLIDELL        CLOUDY    73  70  90 CALM      29.96R
BATON ROUGE    PTCLDY    72  71  97 CALM      29.97S
BOOTHVILLE     CLOUDY    77  75  93 W6        29.95F
BELLE CHASSE   CLOUDY    75  72  90 CALM      29.96S
BOGALUSA*      FAIR      73  70  89 CALM      29.97S
GALLIANO*      NOT AVBL
NEW ROADS*     FOG       71  70  98 W3        29.97S VSB 1/2
GONZALES*      CLOUDY    71  71 100 CALM      29.96F FOG
HAMMOND*       MOCLDY    72  70  94 CALM      29.97F
HOUMA*         MOCLDY    74  70  89 CALM      29.97R
PORT FOURCHON* NOT AVBL

$$

LAZ041-044-053-054-171100-
SOUTHWEST LOUISIANA

CITY           SKY/WX    TMP DP  RH WIND       PRES   REMARKS
LAKE CHARLES   FOG       74  73  97 SE3       29.95S VSB 1/2
LAFAYETTE      MOCLDY    73  73 100 CALM      29.97F
PATTERSON      CLOUDY    72  72 100 CALM      29.99S
SALT POINT       N/A     76  73  91 CALM      29.96F
NEW IBERIA     CLOUDY    73  71  93 E6        29.97F
CHENAULT AIRPK NOT AVBL

$$

LAZ027-028-171100-
CENTRAL LOUISIANA

CITY           SKY/WX    TMP DP  RH WIND       PRES   REMARKS
FORT POLK      CLOUDY    71  71 100 CALM      29.98R
ALEXANDRIA INT PTCLDY    71  70  96 CALM      29.95F FOG
ALEXANDRIA     PTCLDY    70  69  97 CALM      29.97S

$$

LAZ001-002-171100-
NORTHWEST LOUISIANA

CITY           SKY/WX    TMP DP  RH WIND       PRES   REMARKS
SHREVEPORT     MOCLDY    73  70  90 CALM      29.96F
BARKSDALE AFB  MOCLDY    71  71 100 SE2       29.97F
DTN SHREVEPORT MOCLDY    73  71  93 CALM      29.97F

$$

LAZ014-016-171100-
NORTHEAST LOUISIANA

CITY           SKY/WX    TMP DP  RH WIND       PRES   REMARKS
MONROE         CLOUDY    71  69  93 NE3       29.97F
TALLULAH       MOCLDY    68  67  96 CALM      29.95F

$$




USA.gov is the U.S. government's official web portal to all federal, state and local government web resources and services.